KOREASAT-6A

导读

KOREASAT 6A是韩国于2024年11月11日发射的通信卫星,属于韩国KT SAT公司Koreasat系列卫星的新一代通信广播卫星,主要接替前代卫星服务。卫星配置多频段转发器,定点于地球静止轨道,可覆盖韩国本土及东亚、东南亚部分区域,为用户提供广播电视传输、宽带通信、电信基础设施服务,设计寿命超15年,助力韩国卫星通信网络的更新迭代,保障区域通信广播服务稳定可靠。

基本信息
目录编号:
61910
目录名称:
KOREASAT 6A
国际标识:
2024-206A
轨道中心:
EARTH
卫星名称:
KOREASAT 6A
卫星全名:
KOREASAT-6A
卫星状态:
在轨 (已飞行622 天)
发射日期:
2024-11-11 UTC
国别 :
韩国 (KR)
星等 :
--
轨道信息
数据来源 国际轨道数据 AOE轨道数据
星历时间 2026-07-25T09:27:49+0800
23小时前
查看轨道信息
2026-07-22T04:00:00+0800
4天前
查看轨道信息
半长轴 42164.868km 42164.532km
偏心率 0.0001071 0.0001067
轨道倾角 0.007° 0.028°
近地点辐角 358.035° 342.823°
升交点赤经 96.795° 101.046°
平近点角 345.918° 271.736°
近地点 35782.215km 35781.896km
远地点 35791.247km 35790.894km
周期 1436.104分钟 1436.087分钟
每日圈数 1.002713 1.002725
详细信息
使用方式:
暂无
2D轨道图
3D轨道图
轨道高度分析图
轨道倾角分析图
轨道综合分析图
查看轨道综合分析图